www.pogodaiklimat.ru

Погода и климат >> Архив погоды >> Россия >> Ханты-Мансийский АО >> Ваховск


ПОГОДА в Ваховске

  • Прогноз погоды в Ваховске
  • Монитор погоды в Ваховске
  • Климат города

АРХИВ ПОГОДЫ в Ваховске

Время (UTC), дата Ветер
(напр.,м/с)
 
Видим.   Явления Облачность Т
(С)
Тd
(С)
f
(%)
Тe
(С)
Тes
(С)
Комфортность P
(гПа)
Po
(гПа)
Тmin
(С)
Tmax
(С)
R
(мм)
S
(см)
03 16.03 Ю 2 10 км 10/0
[Ci fib]
-9.6 -14.5 67 -14 -13 1028.3 1021.0 -12.1 70
06 16.03 Ю 5 н/о н/о -3.7 -15.4 40 -10 -10 1027.2 1020.1
09 16.03 Ю 5
{10}
10 км 10/0
[Cs]
-1.5 -15.5 34 -7 -6 1026.6 1019.5
18 16.03 Ю 3 10 км 10/10 600 м
[Sc]
-3.2 -16.6 35 -8 -8 1025.6 1018.5
21 16.03 Ю 3 10 км 9/9 600 м
[Sc]
-4.0 -12.6 51 -9 -9 1025.3 1018.2
00 17.03 Ю 3 10 км ясно -6.2 -12.9 59 -11 -11 1025.5 1018.3
03 17.03 Ю 4 10 км ясно -5.7 -13.5 54 -12 -11 1026.0 1018.8 -6.7 68
06 17.03 Ю 4 10 км 10/0
[Ci fib]
-2.8 -12.2 48 -8 -6 1026.0 1018.9
09 17.03 Ю 5
{11}
10 км 6/0
[Ci fib]
-0.8 -10.3 49 -6 -5 1026.0 1018.9
12 17.03 Ю 4 н/о н/о -0.7 -10.0 49 -6 -6 1026.2 1019.1
18 17.03 Ю 3 10 км ясно -4.8 -10.7 63 -10 -10 1027.1 1019.9
21 17.03 Ю 2 10 км ясно -7.3 -11.4 72 -12 -12 1027.1 1019.9
00 18.03 Ю 2 н/о н/о -9.2 -12.1 79 -14 -14 1027.9 1020.6
03 18.03 Ю 3 10 км ясно -7.5 -11.5 73 -13 -12 1028.8 1021.5 -10.1 68
06 18.03 Ю 4 н/о н/о -0.6 -9.2 52 -6 -6 1028.8 1021.7
09 18.03 Ю 3 н/о н/о +2.9 -8.7 42 -0 -0 1028.7 1021.7
12 18.03 Ю 3 н/о н/о +2.0 -8.4 46 -1 -1 1029.0 1022.0
18 18.03 Ю 3 10 км ясно -2.1 -9.0 59 -7 -7 1029.7 1022.6
21 18.03 Ю 3 10 км 10/0
[Ci fib]
-2.7 -9.1 61 -7 -7 1029.6 1022.5
00 19.03 Ю 2 10 км 10/0
[Ci fib]
-4.1 -9.7 65 -8 -8 1029.7 1022.5
03 19.03 Ю 3 10 км 10/0
[Ac und]
-3.8 -10.0 62 -9 -8 1029.8 1022.6 -4.4 66
06 19.03 Ю 4 н/о н/о +1.0 -15.1 29 -3 -3 1029.4 1022.4
09 19.03 Ю 4 10 км 10/0
[Ci fib]
+2.7 -17.0 22 -1 +1 1028.9 1021.9
12 19.03 Ю 2 н/о н/о +1.5 -15.5 27 -1 -1 1029.2 1022.1
18 19.03 Ю 3 10 км ясно -5.1 -17.6 37 -10 -10 1030.0 1022.8
21 19.03 Ю 3 10 км ясно -6.8 -16.5 46 -12 -12 1030.5 1023.3
00 20.03 Ю 1 10 км ясно -14.6 -18.5 72 -17 -17 1031.4 1023.9
03 20.03 Ю 3 10 км ясно -6.6 -15.6 49 -12 -10 1032.1 1024.8 -15.5 65
06 20.03 ЮЗ 2 н/о н/о +0.9 -15.2 29 -1 -1 1032.0 1024.9
09 20.03 Ю 3 10 км ясно +2.9 -15.4 25 0 +3 1031.8 1024.8
12 20.03 Ю 2 н/о н/о +1.6 -16.6 24 -1 -1 1032.2 1025.2
18 20.03 Ю 2 10 км ясно -7.2 -15.1 53 -11 -11 1032.7 1025.4
21 20.03 Ю 2 10 км ясно -4.5 -18.2 33 -8 -8 1033.0 1025.8
00 21.03 Ю 3 10 км ясно -4.4 -19.0 31 -9 -9 1033.3 1026.1
03 21.03 Ю 2 10 км 3/0
[Ci fib]
-3.9 -18.7 31 -7 -5 1033.9 1026.7 -11.2 65
06 21.03 Ю 2 н/о н/о -4.9 -18.1 35 -8 -8 1033.8 1026.7
09 21.03 Ю 4 10 км 10/0
[Ci fib]
-3.7 -16.6 36 -9 -7 1033.4 1026.4
12 21.03 ЮЗ 1 н/о н/о +3.6 -17.7 19 +3 +3 1033.1 1026.1
18 21.03 Ю 2 10 км ясно -5.6 -17.2 40 -9 -9 1033.0 1025.8
21 21.03 Ю 3 10 км ясно -5.5 -18.9 34 -10 -10 1033.2 1026.0
00 22.03 Ю 3 10 км ясно -6.1 -19.7 33 -11 -11 1033.4 1026.2
03 22.03 Ю 3 10 км 10/0
[Ci fib]
-4.4 -19.7 29 -9 -8 1033.5 1026.3 -7.4 65
06 22.03 Ю 3 н/о н/о +0.8 -16.7 26 -3 -3 1032.8 1025.7
09 22.03 Ю 4 10 км 10/0
[Ci fib]
+3.6 -15.7 23 0 +3 1032.4 1025.4
12 22.03 Ю 3 н/о н/о +3.2 -15.6 24 0 0 1032.1 1025.1
18 22.03 Ю 3 10 км 10/0
[Ci fib]
-0.4 -16.8 28 -4 -4 1030.8 1023.7
21 22.03 Ю 3 10 км 10/0
[Ci fib]
-1.5 -17.3 29 -5 -5 1030.4 1023.3

 

Местоположение метеостанции Ваховск (Ханты-Мансийский АО, Россия): широта 60.95 долгота 78.77 высота над уровнем моря 56 м.

В архиве по умолчанию представлена погода в Ваховске за последнюю неделю. Архивные данные за месяц целиком и за предыдущие месяцы, начиная с января 2011 года, Вы можете получить, выбрав интересующий диапазон дат из раскрывающегося списка и нажав кнопку "Ввод!".

Внимание! Время в таблицах - всемирное. Для получения местного времени необходимо прибавить поправку, которая в Ваховске равна 5 ч.

Смотрите также архив погоды в соседних городах и на ближайших метеорологических станциях:

Погода в Александровском (Томская область, Россия) (76 км)
Погода в Ларьяке (Ханты-Мансийский АО, Россия) (81 км)
Погода в Нижневартовске (Ханты-Мансийский АО, Россия) (117 км)
Погода в Радужном (Ханты-Мансийский АО, Россия) (154 км)
Погода в Прохоркино (Томская область, Россия) (164 км)
Погода в Среднем Васюгане (Томская область, Россия) (195 км)
Погода в Корликах (Ханты-Мансийский АО, Россия) (206 км)
Погода в Напасе (Томская область, Россия) (213 км)
Погода в Каргасоке (Томская область, Россия) (239 км)
Погода в Угуте (Ханты-Мансийский АО, Россия) (263 км)

Пояснения к столбцам:

Ветер - указаны скорость ветра в м/с - средняя за 10 мин, порывы в срок и между сроками (в фигурных скобках) и направление, откуда дует ветер: С - северный, СВ - северо-восточный, В - восточный, ЮВ - юго-восточный, Ю - южный, ЮЗ - юго-западный, З - западный, СЗ - северо-западный.
Видимость - горизонтальная дальность видимости в метрах или километрах. При видимости от 1 до 10 км при отсутствии осадков обычно наблюдается дымка, при ухудшении видимости до 1 км и менее - туман. В сухую погоду видимость может ухудшаться дымом, пылью или мглою.
Явления - указаны атмосферные явления, наблюдавшиеся в срок или в последний час перед сроком; фигурными скобками обозначены явления, наблюдавшиеся между сроками (за 1-3 часа до срока); квадратными скобками обозначены град или гололедные отложения с указанием их диаметра в мм.
Облачность - указаны через наклонную черту общая и нижняя облачность в баллах и высота нижней границы облаков в метрах; квадратными скобками обозначены формы облаков: Ci - перистые, Cs - перисто-слоистые, Cc - перисто-кучевые, Ac - высококучевые, As - высокослоистые, Sc - слоисто-кучевые, Ns - слоисто-дождевые, Cu - кучевые, Cb - кучево-дождевые. Подробнее классификацию облаков см. в Атласе облаков (PDF).
T - Температура воздуха - температура, измеренная на высоте 2 м над землей.
Td - Температура точки росы - температура, при понижении до которой содержащийся в воздухе водяной пар достигнет насыщения.
f - Относительная влажность воздуха - влажноcть воздуха, измеренная на высоте 2 м над землей.
Te - Эффективная температура - температура, которую ощущает одетый по сезону человек в тени. Характеристика душности погоды. При расчете учитывается влияние влажности воздуха и скорости ветра на теплоощущения человека.
Tes - Эффективная температура на солнце - температура, которую ощущает человек, с поправкой на солнечный нагрев. Характеристика знойности погоды. Зависит от высоты солнца над горизонтом, облачности и скорости ветра. Ночью, в пасмурную погоду, а также при ветре 12 м/с и более поправка равна нулю.
P - Атмосферное давление - приведенное к уровню моря атмосферное давление.
Po - Атмосферное давление - измеренное на уровне метеостанции атмосферное давление.
Tmin - Минимальная температура - минимум температуры воздуха на высоте 2 м над землей.
Tmax - Максимальная температура - максимум температуры воздуха на высоте 2 м над землей.
R - Количество осадков - Количество выпавших осадков, мм. При наведении курсора мыши на число - период времени, за который выпало указанное количество осадков.
S - Снежный покров - Высота снежного покрова, см. При наведении курсора мыши на число - состояние снежного покрова и степень покрытия местности в баллах.